Weather in Unawatuna

Sri Lanka     6°02′20″N   80°12′57″E
temp.,
°C
wind,
m/s
gust,
m/s
humid.,
%
clouds,
%
prec.,
mm/h
press.,
hPa
HPBL,
m
9 march, tue
tue923:30+25ene348643 6.6 1012203
02:30+24ene488624 0.0 1009307
05:30+24ene478619 0.0 1010277
08:30+26ene48744 0.0 1013454
11:30+31ese356010 0.0 1013820
14:30+31se566111 0.1 10091089
17:30+29e367216 0.3 1010522
20:30+26ne45793 0.1 1013384
10 march, wed
wed1023:30+25ne23842 0.1 1013190
02:30+25e22860 0.0 1010117
05:30+24e22870 0.0 1010116
08:30+27e23740 0.0 1013286
11:30+31w135827 0.0 1012849
14:30+28sw357675 2.1 1009504
17:30+28sse247887 6.3 1009522
20:30+27ene468299 1.4 1012360
11 march, thu
thu1123:30+25ene598596 1.4 1012392
02:30+24e578792 0.0 1009298
05:30+25ene6108089 0.0 1009389
08:30+27ene587243 0.0 1012474
11:30+31ese346223 0.2 1011856
14:30+28e797691 6.3 1009748
17:30+28e6107388 8.9 1009841
20:30+27ene51078100 0.0 1012615
12 march, fri
fri1223:30+25ne348492 0.0 1012225
02:30+25ne238364 0.0 1010211
05:30+25nne348473 0.0 1010193
08:30+27n2473100 0.0 1013310
11:30+30sse1358100 0.0 1012856
14:30+28sw3474100 1.6 1010438
17:30+27sse277599 6.0 1010455
20:30+26e5782100 4.1 1013430
13 march, sat
sat1323:30+25ene3482100 4.8 1013248
02:30+24ne338492 0.0 1011166
05:30+25ne238296 0.0 1012207
08:30+26ene238185 1.2 1014223
11:30+26sse458279 6.4 1014530
14:30+24e6991100 3.9 1011455
17:30+24ene71188100 4.8 1011435
20:30+25ene61083100 0.0 1012307